KD7DVD-1 Weather Reports


time (UTC)temp
C
wind
direction
speed
KPH
gust
KPH
rain 1hr
cm
rain 24hr
cm
rain mn
cm
humidity
%
barometer
mb
20260505123015 13 0.0 3.2 0.00 0.00 0.00 84 1013.9
20260505120015 13 0.0 3.2 0.00 0.00 0.00 84 1013.8
20260505113015 13 0.0 3.2 0.00 0.00 0.00 85 1013.6
20260505100017 12 0.0 4.8 0.00 0.00 0.00 86 1013.0
20260505093017 12 0.0 1.6 0.00 0.00 0.00 87 1012.8
20260505090017 12 0.0 1.6 0.00 0.00 0.00 87 1012.6
20260505083017 12 0.0 1.6 0.00 0.00 0.00 86 1012.4
20260505080017 12 0.0 1.6 0.00 0.00 0.00 85 1012.5
20260505073017 12 0.0 1.6 0.00 0.00 0.00 85 1012.2
20260505070017 13 0.0 1.6 0.00 0.00 0.00 84 1012.0
20260505063016 13 0.0 1.6 0.00 0.00 0.00 83 1011.7
20260505060016 14 0.0 1.6 0.00 0.00 0.00 81 1011.3
20260505053016 15 0.0 1.6 0.00 0.00 0.00 78 1010.9
20260505040015 18 0.0 1.6 0.00 0.00 0.00 69 1009.9
20260505033015 20 0.0 1.6 0.00 0.00 0.00 65 1009.3
20260505030016 21 0.0 1.6 0.00 0.00 0.00 61 1009.2
20260505023015 23 0.0 1.6 0.00 0.00 0.00 56 1008.9
20260505020017 26 0.0 3.2 0.00 0.00 0.00 49 1008.9
20260505013017 27 0.0 3.2 0.00 0.00 0.00 45 1008.9
20260505010017 27 0.0 6.4 0.00 0.00 0.00 43 1009.0
20260505003017 27 0.0 8.0 0.00 0.00 0.00 42 1009.0
20260505000017 27 0.0 8.0 0.00 0.00 0.00 40 1009.1
20260504233017 27 0.0 6.4 0.00 0.00 0.00 37 1009.3
20260504230017 27 0.0 4.8 0.00 0.00 0.00 37 1009.3
20260504223017 27 0.0 3.2 0.00 0.00 0.00 37 1009.5
20260504220016 26 0.0 6.4 0.00 0.00 0.00 36 1009.8
20260504213016 26 270 1.6 8.0 0.00 0.00 0.00 40 1009.9
20260504210016 25 270 1.6 8.0 0.00 0.00 0.00 45 1010.1
20260504203016 23 270 1.6 9.7 0.00 0.00 0.00 48 1010.3
20260504200016 23 270 1.6 9.7 0.00 0.00 0.00 48 1010.2
20260504193016 23 0.0 4.8 0.00 0.00 0.00 46 1010.3
20260504190016 22 0.0 4.8 0.00 0.00 0.00 48 1010.3
20260504183016 22 0.0 8.0 0.00 0.00 0.00 48 1010.5
20260504180016 21 0.0 4.8 0.00 0.00 0.00 52 1010.7
20260504173016 20 0.0 1.6 0.00 0.00 0.00 59 1010.7